Time,TemperatureF,DewpointF,PressureIn,WindDirection,WindDirectionDegrees,WindSpeedMPH,WindSpeedGustMPH,Humidity,HourlyPrecipIn,Conditions,Clouds,dailyrainin,SoftwareType,DateUTC
2013-06-16 00:05:00,69.7,67.6,29.89,SW,229,13.0,15.0,93,0.00,,,0.00,Wunderground v.1.15,2013-06-16 05:05:00,
2013-06-16 00:10:00,69.5,67.4,29.89,SW,229,10.0,10.0,93,0.00,,,0.00,Wunderground v.1.15,2013-06-16 05:10:00,
2013-06-16 00:16:00,69.4,67.3,29.88,SW,231,9.0,14.0,93,0.00,,,0.00,Wunderground v.1.15,2013-06-16 05:16:00,
2013-06-16 00:22:00,69.3,67.2,29.88,WSW,248,9.0,14.0,93,0.00,,,0.00,Wunderground v.1.15,2013-06-16 05:22:00,
2013-06-16 00:28:00,69.2,67.1,29.88,South,188,10.0,17.0,93,0.00,,,0.00,Wunderground v.1.15,2013-06-16 05:28:00,
2013-06-16 00:34:00,69.0,67.2,29.88,SSW,196,10.0,11.0,94,0.00,,,0.00,Wunderground v.1.15,2013-06-16 05:34:00,
2013-06-16 00:39:00,69.0,67.2,29.89,WSW,245,10.0,13.0,94,0.00,,,0.00,Wunderground v.1.15,2013-06-16 05:39:00,
2013-06-16 00:45:00,68.9,67.1,29.89,SW,234,9.0,12.0,94,0.00,,,0.00,Wunderground v.1.15,2013-06-16 05:45:00,
2013-06-16 00:51:00,68.8,67.0,29.88,SW,234,8.0,14.0,94,0.00,,,0.00,Wunderground v.1.15,2013-06-16 05:51:00,
2013-06-16 00:56:00,68.8,66.7,29.88,WSW,254,10.0,17.0,93,0.00,,,0.00,Wunderground v.1.15,2013-06-16 05:56:00,
2013-06-16 01:02:00,68.7,66.6,29.88,WSW,237,8.0,12.0,93,0.00,,,0.00,Wunderground v.1.15,2013-06-16 06:02:00,
2013-06-16 01:07:00,68.7,66.6,29.88,WSW,243,7.0,12.0,93,0.00,,,0.00,Wunderground v.1.15,2013-06-16 06:07:00,
2013-06-16 01:13:00,68.6,66.5,29.87,West,261,6.0,10.0,93,0.00,,,0.00,Wunderground v.1.15,2013-06-16 06:13:00,
2013-06-16 01:19:00,68.5,66.1,29.87,WSW,249,6.0,10.0,92,0.00,,,0.00,Wunderground v.1.15,2013-06-16 06:19:00,
2013-06-16 01:24:00,68.5,66.1,29.87,WSW,238,6.0,10.0,92,0.00,,,0.00,Wunderground v.1.15,2013-06-16 06:24:00,
2013-06-16 01:30:00,68.5,66.1,29.86,SW,236,6.0,6.0,92,0.00,,,0.00,Wunderground v.1.15,2013-06-16 06:30:00,
2013-06-16 01:36:00,68.4,66.0,29.86,WSW,240,5.0,6.0,92,0.00,,,0.00,Wunderground v.1.15,2013-06-16 06:36:00,
2013-06-16 01:41:00,68.3,65.9,29.86,West,269,5.0,6.0,92,0.00,,,0.00,Wunderground v.1.15,2013-06-16 06:41:00,
2013-06-16 01:47:00,68.1,65.7,29.86,WSW,251,4.0,8.0,92,0.00,,,0.00,Wunderground v.1.15,2013-06-16 06:47:00,
2013-06-16 01:53:00,68.1,65.7,29.86,West,275,3.0,4.0,92,0.00,,,0.00,Wunderground v.1.15,2013-06-16 06:53:00,
2013-06-16 01:58:00,68.0,65.6,29.86,NNW,344,2.0,4.0,92,0.00,,,0.00,Wunderground v.1.15,2013-06-16 06:58:00,
2013-06-16 02:04:00,67.9,65.5,29.86,WSW,252,2.0,4.0,92,0.00,,,0.00,Wunderground v.1.15,2013-06-16 07:04:00,
2013-06-16 02:10:00,67.7,65.3,29.86,WSW,257,2.0,3.0,92,0.00,,,0.00,Wunderground v.1.15,2013-06-16 07:10:00,
2013-06-16 02:16:00,67.5,65.1,29.86,West,276,2.0,5.0,92,0.00,,,0.00,Wunderground v.1.15,2013-06-16 07:16:00,
2013-06-16 02:21:00,67.4,65.3,29.85,WSW,258,2.0,5.0,93,0.00,,,0.00,Wunderground v.1.15,2013-06-16 07:21:00,
2013-06-16 02:27:00,67.2,65.1,29.85,West,259,2.0,5.0,93,0.00,,,0.00,Wunderground v.1.15,2013-06-16 07:27:00,
2013-06-16 02:33:00,67.0,64.9,29.85,West,259,1.0,3.0,93,0.00,,,0.00,Wunderground v.1.15,2013-06-16 07:33:00,
2013-06-16 02:39:00,66.8,65.0,29.85,West,259,2.0,3.0,94,0.00,,,0.00,Wunderground v.1.15,2013-06-16 07:39:00,
2013-06-16 02:44:00,66.8,65.0,29.85,West,259,2.0,5.0,94,0.00,,,0.00,Wunderground v.1.15,2013-06-16 07:44:00,
2013-06-16 02:49:00,66.7,64.9,29.84,West,265,3.0,5.0,94,0.00,,,0.00,Wunderground v.1.15,2013-06-16 07:49:00,
2013-06-16 02:54:00,66.7,64.9,29.84,West,261,2.0,3.0,94,0.00,,,0.00,Wunderground v.1.15,2013-06-16 07:54:00,
2013-06-16 03:00:00,66.6,64.8,29.84,West,265,2.0,3.0,94,0.00,,,0.00,Wunderground v.1.15,2013-06-16 08:00:00,
2013-06-16 03:06:00,66.6,64.8,29.84,WSW,252,3.0,4.0,94,0.00,,,0.00,Wunderground v.1.15,2013-06-16 08:06:00,
2013-06-16 03:12:00,66.6,64.8,29.85,WSW,258,4.0,7.0,94,0.00,,,0.00,Wunderground v.1.15,2013-06-16 08:12:00,
2013-06-16 03:18:00,66.6,64.8,29.84,West,273,4.0,7.0,94,0.00,,,0.00,Wunderground v.1.15,2013-06-16 08:18:00,
2013-06-16 03:23:00,66.6,64.8,29.84,West,277,4.0,7.0,94,0.00,,,0.00,Wunderground v.1.15,2013-06-16 08:23:00,
2013-06-16 03:28:00,66.5,64.7,29.85,West,259,4.0,7.0,94,0.00,,,0.00,Wunderground v.1.15,2013-06-16 08:28:00,
2013-06-16 03:34:00,66.4,64.6,29.85,West,261,4.0,7.0,94,0.00,,,0.00,Wunderground v.1.15,2013-06-16 08:34:00,
2013-06-16 03:39:00,66.5,64.7,29.85,West,265,5.0,8.0,94,0.00,,,0.00,Wunderground v.1.15,2013-06-16 08:39:00,
2013-06-16 03:45:00,66.7,64.6,29.85,West,278,6.0,11.0,93,0.00,,,0.00,Wunderground v.1.15,2013-06-16 08:45:00,
2013-06-16 03:50:00,66.8,64.4,29.85,West,277,5.0,8.0,92,0.00,,,0.00,Wunderground v.1.15,2013-06-16 08:50:00,
2013-06-16 03:56:00,67.0,64.6,29.85,West,265,5.0,8.0,92,0.00,,,0.00,Wunderground v.1.15,2013-06-16 08:56:00,
2013-06-16 04:01:00,67.1,64.7,29.85,West,261,5.0,6.0,92,0.00,,,0.00,Wunderground v.1.15,2013-06-16 09:01:00,
2013-06-16 04:07:00,67.1,64.7,29.85,WSW,248,6.0,8.0,92,0.00,,,0.00,Wunderground v.1.15,2013-06-16 09:07:00,
2013-06-16 04:13:00,67.2,64.8,29.85,West,265,6.0,8.0,92,0.00,,,0.00,Wunderground v.1.15,2013-06-16 09:13:00,
2013-06-16 04:19:00,67.2,64.5,29.86,WNW,286,5.0,8.0,91,0.00,,,0.00,Wunderground v.1.15,2013-06-16 09:19:00,
2013-06-16 04:25:00,67.3,64.6,29.86,West,260,5.0,8.0,91,0.00,,,0.00,Wunderground v.1.15,2013-06-16 09:25:00,
2013-06-16 04:30:00,67.4,64.7,29.86,West,277,5.0,5.0,91,0.00,,,0.00,Wunderground v.1.15,2013-06-16 09:30:00,
2013-06-16 04:35:00,67.4,64.7,29.86,West,261,5.0,9.0,91,0.00,,,0.00,Wunderground v.1.15,2013-06-16 09:35:00,
2013-06-16 04:41:00,67.3,64.6,29.86,SSW,213,5.0,8.0,91,0.00,,,0.00,Wunderground v.1.15,2013-06-16 09:41:00,
2013-06-16 04:47:00,67.3,64.6,29.86,SW,231,6.0,9.0,91,0.00,,,0.00,Wunderground v.1.15,2013-06-16 09:47:00,
2013-06-16 04:53:00,67.3,64.6,29.86,WSW,242,5.0,7.0,91,0.00,,,0.00,Wunderground v.1.15,2013-06-16 09:53:00,
2013-06-16 04:58:00,67.2,64.5,29.87,WSW,254,5.0,9.0,91,0.00,,,0.00,Wunderground v.1.15,2013-06-16 09:58:00,
2013-06-16 05:04:00,67.2,64.8,29.87,WSW,248,6.0,9.0,92,0.00,,,0.00,Wunderground v.1.15,2013-06-16 10:04:00,
2013-06-16 05:10:00,67.1,64.7,29.87,WSW,252,6.0,6.0,92,0.00,,,0.00,Wunderground v.1.15,2013-06-16 10:10:00,
2013-06-16 05:15:00,67.1,64.7,29.87,WSW,238,5.0,9.0,92,0.00,,,0.00,Wunderground v.1.15,2013-06-16 10:15:00,
2013-06-16 05:21:00,67.0,64.6,29.87,SW,215,6.0,6.0,92,0.00,,,0.00,Wunderground v.1.15,2013-06-16 10:21:00,
2013-06-16 05:26:00,66.9,64.5,29.88,WSW,254,6.0,10.0,92,0.00,,,0.00,Wunderground v.1.15,2013-06-16 10:26:00,
2013-06-16 05:32:00,66.8,64.4,29.88,SW,233,5.0,6.0,92,0.00,,,0.00,Wunderground v.1.15,2013-06-16 10:32:00,
2013-06-16 05:38:00,66.8,64.7,29.88,SSW,213,5.0,7.0,93,0.00,,,0.00,Wunderground v.1.15,2013-06-16 10:38:00,
2013-06-16 05:44:00,66.8,64.7,29.88,SW,229,5.0,7.0,93,0.00,,,0.00,Wunderground v.1.15,2013-06-16 10:44:00,
2013-06-16 05:50:00,66.9,64.8,29.88,WSW,247,5.0,5.0,93,0.00,,,0.00,Wunderground v.1.15,2013-06-16 10:50:00,
2013-06-16 05:55:00,66.9,64.8,29.88,WSW,243,5.0,7.0,93,0.00,,,0.00,Wunderground v.1.15,2013-06-16 10:55:00,
2013-06-16 06:01:00,66.9,64.8,29.88,WNW,289,6.0,8.0,93,0.00,,,0.00,Wunderground v.1.15,2013-06-16 11:01:00,
2013-06-16 06:07:00,66.9,64.8,29.88,West,259,6.0,8.0,93,0.00,,,0.00,Wunderground v.1.15,2013-06-16 11:07:00,
2013-06-16 06:13:00,66.9,64.8,29.88,WSW,241,5.0,8.0,93,0.00,,,0.00,Wunderground v.1.15,2013-06-16 11:13:00,
2013-06-16 06:19:00,67.0,64.9,29.88,WSW,254,5.0,8.0,93,0.00,,,0.00,Wunderground v.1.15,2013-06-16 11:19:00,
2013-06-16 06:25:00,67.0,64.9,29.88,SW,230,4.0,5.0,93,0.00,,,0.00,Wunderground v.1.15,2013-06-16 11:25:00,
2013-06-16 06:31:00,67.0,64.9,29.88,WSW,246,3.0,4.0,93,0.00,,,0.00,Wunderground v.1.15,2013-06-16 11:31:00,
2013-06-16 06:37:00,67.0,64.9,29.88,West,261,4.0,6.0,93,0.00,,,0.00,Wunderground v.1.15,2013-06-16 11:37:00,
2013-06-16 06:43:00,67.0,64.9,29.88,WSW,257,3.0,5.0,93,0.00,,,0.00,Wunderground v.1.15,2013-06-16 11:43:00,
2013-06-16 06:48:00,67.2,65.4,29.88,WSW,254,3.0,5.0,94,0.00,,,0.00,Wunderground v.1.15,2013-06-16 11:48:00,
2013-06-16 06:53:00,67.3,65.5,29.88,West,264,3.0,5.0,94,0.00,,,0.00,Wunderground v.1.15,2013-06-16 11:53:00,
2013-06-16 06:59:00,67.5,65.7,29.88,WNW,300,4.0,7.0,94,0.00,,,0.00,Wunderground v.1.15,2013-06-16 11:59:00,
2013-06-16 07:05:00,67.5,65.7,29.89,West,265,4.0,6.0,94,0.00,,,0.00,Wunderground v.1.15,2013-06-16 12:05:00,
2013-06-16 07:11:00,67.5,65.4,29.89,WSW,250,4.0,7.0,93,0.00,,,0.00,Wunderground v.1.15,2013-06-16 12:11:00,
2013-06-16 07:16:00,67.7,65.6,29.89,West,270,5.0,7.0,93,0.00,,,0.00,Wunderground v.1.15,2013-06-16 12:16:00,
2013-06-16 07:22:00,68.0,65.9,29.89,WSW,237,4.0,6.0,93,0.00,,,0.00,Wunderground v.1.15,2013-06-16 12:22:00,
2013-06-16 07:28:00,68.2,66.1,29.89,WNW,282,3.0,6.0,93,0.00,,,0.00,Wunderground v.1.15,2013-06-16 12:28:00,
2013-06-16 07:34:00,68.3,65.9,29.89,West,269,4.0,6.0,92,0.00,,,0.00,Wunderground v.1.15,2013-06-16 12:34:00,
2013-06-16 07:39:00,68.4,66.0,29.89,West,273,3.0,6.0,92,0.00,,,0.00,Wunderground v.1.15,2013-06-16 12:39:00,
2013-06-16 07:44:00,68.5,66.1,29.90,West,260,3.0,3.0,92,0.00,,,0.00,Wunderground v.1.15,2013-06-16 12:44:00,
2013-06-16 07:50:00,68.5,66.1,29.89,WSW,255,3.0,6.0,92,0.00,,,0.00,Wunderground v.1.15,2013-06-16 12:50:00,
2013-06-16 07:56:00,68.6,66.5,29.89,West,271,3.0,6.0,93,0.00,,,0.00,Wunderground v.1.15,2013-06-16 12:56:00,
2013-06-16 08:01:00,68.8,66.4,29.89,WSW,244,3.0,5.0,92,0.00,,,0.00,Wunderground v.1.15,2013-06-16 13:01:00,
2013-06-16 08:06:00,69.0,66.6,29.89,West,264,4.0,6.0,92,0.00,,,0.00,Wunderground v.1.15,2013-06-16 13:06:00,
2013-06-16 08:11:00,69.2,66.8,29.89,WSW,251,4.0,9.0,92,0.00,,,0.00,Wunderground v.1.15,2013-06-16 13:11:00,
2013-06-16 08:16:00,69.2,66.5,29.89,WSW,247,4.0,9.0,91,0.00,,,0.00,Wunderground v.1.15,2013-06-16 13:16:00,
2013-06-16 08:22:00,69.4,67.0,29.89,West,270,5.0,6.0,92,0.00,,,0.00,Wunderground v.1.15,2013-06-16 13:22:00,
2013-06-16 08:28:00,69.7,67.0,29.89,WSW,246,4.0,6.0,91,0.00,,,0.00,Wunderground v.1.15,2013-06-16 13:28:00,
2013-06-16 08:34:00,70.0,67.3,29.89,WSW,252,4.0,9.0,91,0.00,,,0.00,Wunderground v.1.15,2013-06-16 13:34:00,
2013-06-16 08:39:00,70.2,67.1,29.89,WSW,254,5.0,9.0,90,0.00,,,0.00,Wunderground v.1.15,2013-06-16 13:39:00,
2013-06-16 08:44:00,70.7,67.6,29.89,WSW,239,5.0,7.0,90,0.00,,,0.00,Wunderground v.1.15,2013-06-16 13:44:00,
2013-06-16 08:49:00,71.2,67.8,29.89,West,270,5.0,7.0,89,0.00,,,0.00,Wunderground v.1.15,2013-06-16 13:49:00,
2013-06-16 08:54:00,71.1,68.0,29.89,West,262,5.0,5.0,90,0.00,,,0.00,Wunderground v.1.15,2013-06-16 13:54:00,
2013-06-16 09:00:00,71.3,67.9,29.89,West,261,3.0,5.0,89,0.00,,,0.00,Wunderground v.1.15,2013-06-16 14:00:00,
2013-06-16 09:06:00,71.5,67.8,29.89,West,264,4.0,6.0,88,0.00,,,0.00,Wunderground v.1.15,2013-06-16 14:06:00,
2013-06-16 09:12:00,71.7,67.6,29.90,West,264,4.0,5.0,87,0.00,,,0.00,Wunderground v.1.15,2013-06-16 14:12:00,
2013-06-16 09:17:00,71.8,67.4,29.89,WNW,288,4.0,7.0,86,0.00,,,0.00,Wunderground v.1.15,2013-06-16 14:17:00,
2013-06-16 09:23:00,72.1,67.7,29.90,SW,236,3.0,7.0,86,0.00,,,0.00,Wunderground v.1.15,2013-06-16 14:23:00,
2013-06-16 09:28:00,72.3,67.9,29.89,WNW,288,5.0,7.0,86,0.00,,,0.00,Wunderground v.1.15,2013-06-16 14:28:00,
2013-06-16 09:34:00,72.3,67.9,29.89,West,269,5.0,8.0,86,0.00,,,0.00,Wunderground v.1.15,2013-06-16 14:34:00,
2013-06-16 09:39:00,72.7,68.3,29.89,WNW,285,4.0,8.0,86,0.00,,,0.00,Wunderground v.1.15,2013-06-16 14:39:00,
2013-06-16 09:44:00,72.6,68.2,29.89,WSW,240,3.0,5.0,86,0.00,,,0.00,Wunderground v.1.15,2013-06-16 14:44:00,
2013-06-16 09:50:00,73.1,69.0,29.89,SSW,210,3.0,3.0,87,0.00,,,0.00,Wunderground v.1.15,2013-06-16 14:50:00,
2013-06-16 09:55:00,73.5,68.7,29.89,SW,223,4.0,8.0,85,0.00,,,0.00,Wunderground v.1.15,2013-06-16 14:55:00,
2013-06-16 10:01:00,73.3,68.5,29.89,SW,215,5.0,5.0,85,0.00,,,0.00,Wunderground v.1.15,2013-06-16 15:01:00,
2013-06-16 10:07:00,73.8,68.7,29.89,SW,219,4.0,5.0,84,0.00,,,0.00,Wunderground v.1.15,2013-06-16 15:07:00,
2013-06-16 10:13:00,73.9,67.7,29.89,West,274,3.0,3.0,81,0.00,,,0.00,Wunderground v.1.15,2013-06-16 15:13:00,
2013-06-16 10:19:00,74.4,69.2,29.89,WSW,248,2.0,7.0,84,0.00,,,0.00,Wunderground v.1.15,2013-06-16 15:19:00,
2013-06-16 10:25:00,74.0,68.5,29.89,SW,232,2.0,6.0,83,0.00,,,0.00,Wunderground v.1.15,2013-06-16 15:25:00,
2013-06-16 10:30:00,74.6,68.7,29.89,SW,233,2.0,2.0,82,0.00,,,0.00,Wunderground v.1.15,2013-06-16 15:30:00,
2013-06-16 10:36:00,74.8,68.9,29.88,SW,223,2.0,2.0,82,0.00,,,0.00,Wunderground v.1.15,2013-06-16 15:36:00,
2013-06-16 10:42:00,74.4,68.2,29.89,WSW,247,3.0,5.0,81,0.00,,,0.00,Wunderground v.1.15,2013-06-16 15:42:00,
2013-06-16 10:47:00,74.9,69.7,29.89,SW,222,3.0,5.0,84,0.00,,,0.00,Wunderground v.1.15,2013-06-16 15:47:00,
2013-06-16 10:53:00,75.3,69.1,29.89,SSW,207,3.0,4.0,81,0.00,,,0.00,Wunderground v.1.15,2013-06-16 15:53:00,
2013-06-16 10:59:00,75.0,68.4,29.89,SW,219,3.0,4.0,80,0.00,,,0.00,Wunderground v.1.15,2013-06-16 15:59:00,
2013-06-16 11:05:00,75.9,68.5,29.89,SW,218,2.0,4.0,78,0.00,,,0.00,Wunderground v.1.15,2013-06-16 16:05:00,
2013-06-16 11:11:00,76.5,69.5,29.89,WSW,244,3.0,5.0,79,0.00,,,0.00,Wunderground v.1.15,2013-06-16 16:11:00,
2013-06-16 11:17:00,76.6,69.2,29.89,West,263,3.0,5.0,78,0.00,,,0.00,Wunderground v.1.15,2013-06-16 16:17:00,
2013-06-16 11:23:00,77.1,69.3,29.89,West,274,3.0,4.0,77,0.00,,,0.00,Wunderground v.1.15,2013-06-16 16:23:00,
2013-06-16 11:28:00,77.1,69.7,29.89,South,185,3.0,8.0,78,0.00,,,0.00,Wunderground v.1.15,2013-06-16 16:28:00,
2013-06-16 11:33:00,77.0,68.9,29.89,West,261,3.0,4.0,76,0.00,,,0.00,Wunderground v.1.15,2013-06-16 16:33:00,
2013-06-16 11:38:00,77.2,69.0,29.89,SSW,200,3.0,5.0,76,0.00,,,0.00,Wunderground v.1.15,2013-06-16 16:38:00,
2013-06-16 11:44:00,77.3,70.3,29.89,SW,231,2.0,4.0,79,0.00,,,0.00,Wunderground v.1.15,2013-06-16 16:44:00,
2013-06-16 11:49:00,77.4,70.0,29.89,West,276,3.0,5.0,78,0.00,,,0.00,Wunderground v.1.15,2013-06-16 16:49:00,
2013-06-16 11:55:00,77.5,67.8,29.89,West,263,3.0,7.0,72,0.00,,,0.00,Wunderground v.1.15,2013-06-16 16:55:00,
2013-06-16 12:01:00,77.7,68.0,29.89,West,269,2.0,3.0,72,0.00,,,0.00,Wunderground v.1.15,2013-06-16 17:01:00,
2013-06-16 12:06:00,77.4,66.8,29.89,WSW,252,3.0,6.0,70,0.00,,,0.00,Wunderground v.1.15,2013-06-16 17:06:00,
2013-06-16 12:12:00,77.7,67.1,29.89,WSW,238,2.0,3.0,70,0.00,,,0.00,Wunderground v.1.15,2013-06-16 17:12:00,
2013-06-16 12:17:00,78.4,68.6,29.89,WSW,243,2.0,4.0,72,0.00,,,0.00,Wunderground v.1.15,2013-06-16 17:17:00,
2013-06-16 12:23:00,78.2,68.0,29.89,SW,216,3.0,6.0,71,0.00,,,0.00,Wunderground v.1.15,2013-06-16 17:23:00,
2013-06-16 12:28:00,78.7,68.5,29.89,SW,228,3.0,6.0,71,0.00,,,0.00,Wunderground v.1.15,2013-06-16 17:28:00,
2013-06-16 12:34:00,79.4,70.0,29.89,WSW,258,3.0,3.0,73,0.00,,,0.00,Wunderground v.1.15,2013-06-16 17:34:00,
2013-06-16 12:40:00,79.7,68.6,29.89,SSW,209,4.0,4.0,69,0.00,,,0.00,Wunderground v.1.15,2013-06-16 17:40:00,
2013-06-16 12:45:00,79.2,70.2,29.89,SSW,208,4.0,4.0,74,0.00,,,0.00,Wunderground v.1.15,2013-06-16 17:45:00,
2013-06-16 12:51:00,79.5,68.4,29.89,WSW,256,2.0,4.0,69,0.00,,,0.00,Wunderground v.1.15,2013-06-16 17:51:00,
2013-06-16 12:56:00,79.4,69.6,29.89,SW,228,3.0,9.0,72,0.00,,,0.00,Wunderground v.1.15,2013-06-16 17:56:00,
2013-06-16 13:02:00,79.7,70.7,29.88,SSW,207,5.0,6.0,74,0.00,,,0.00,Wunderground v.1.15,2013-06-16 18:02:00,
2013-06-16 13:08:00,79.9,68.8,29.88,WSW,246,4.0,6.0,69,0.00,,,0.00,Wunderground v.1.15,2013-06-16 18:08:00,
2013-06-16 13:14:00,79.5,69.7,29.89,SW,217,3.0,7.0,72,0.00,,,0.00,Wunderground v.1.15,2013-06-16 18:14:00,
2013-06-16 13:19:00,79.7,69.9,29.88,South,191,5.0,7.0,72,0.00,,,0.00,Wunderground v.1.15,2013-06-16 18:19:00,
2013-06-16 13:24:00,79.8,69.1,29.89,SSW,192,5.0,7.0,70,0.00,,,0.00,Wunderground v.1.15,2013-06-16 18:24:00,
2013-06-16 13:29:00,80.2,69.5,29.88,SW,218,4.0,7.0,70,0.00,,,0.00,Wunderground v.1.15,2013-06-16 18:29:00,
2013-06-16 13:35:00,80.4,67.6,29.89,SW,236,5.0,8.0,65,0.00,,,0.00,Wunderground v.1.15,2013-06-16 18:35:00,
2013-06-16 13:41:00,80.5,68.5,29.88,SSW,192,4.0,4.0,67,0.00,,,0.00,Wunderground v.1.15,2013-06-16 18:41:00,
2013-06-16 13:46:00,80.9,68.9,29.88,South,188,4.0,9.0,67,0.00,,,0.00,Wunderground v.1.15,2013-06-16 18:46:00,
2013-06-16 13:52:00,80.7,67.4,29.88,SSW,211,6.0,6.0,64,0.00,,,0.00,Wunderground v.1.15,2013-06-16 18:52:00,
2013-06-16 13:58:00,80.9,70.2,29.88,SW,220,6.0,7.0,70,0.00,,,0.00,Wunderground v.1.15,2013-06-16 18:58:00,
2013-06-16 14:04:00,81.1,68.2,29.88,SW,227,4.0,6.0,65,0.00,,,0.00,Wunderground v.1.15,2013-06-16 19:04:00,
2013-06-16 14:10:00,81.4,68.5,29.88,WSW,247,5.0,5.0,65,0.00,,,0.00,Wunderground v.1.15,2013-06-16 19:10:00,
2013-06-16 14:16:00,80.6,67.3,29.88,SSW,199,6.0,7.0,64,0.00,,,0.00,Wunderground v.1.15,2013-06-16 19:16:00,
2013-06-16 14:22:00,80.6,68.6,29.88,SSW,196,5.0,5.0,67,0.00,,,0.00,Wunderground v.1.15,2013-06-16 19:22:00,
2013-06-16 14:28:00,81.2,68.3,29.88,SSW,198,5.0,10.0,65,0.00,,,0.00,Wunderground v.1.15,2013-06-16 19:28:00,
2013-06-16 14:34:00,81.1,68.2,29.88,SSW,207,6.0,11.0,65,0.00,,,0.00,Wunderground v.1.15,2013-06-16 19:34:00,
2013-06-16 14:40:00,81.4,68.5,29.88,West,272,6.0,6.0,65,0.00,,,0.00,Wunderground v.1.15,2013-06-16 19:40:00,
2013-06-16 14:45:00,82.0,68.2,29.87,SSW,202,6.0,13.0,63,0.00,,,0.00,Wunderground v.1.15,2013-06-16 19:45:00,
2013-06-16 14:51:00,82.1,68.3,29.88,SW,219,5.0,6.0,63,0.00,,,0.00,Wunderground v.1.15,2013-06-16 19:51:00,
2013-06-16 14:57:00,82.3,68.0,29.87,SW,224,4.0,7.0,62,0.00,,,0.00,Wunderground v.1.15,2013-06-16 19:57:00,
2013-06-16 15:03:00,82.2,66.9,29.87,WSW,244,5.0,7.0,60,0.00,,,0.00,Wunderground v.1.15,2013-06-16 20:03:00,
2013-06-16 15:08:00,82.3,67.5,29.87,SSW,196,5.0,7.0,61,0.00,,,0.00,Wunderground v.1.15,2013-06-16 20:08:00,
2013-06-16 15:13:00,82.5,66.7,29.87,WSW,244,3.0,4.0,59,0.00,,,0.00,Wunderground v.1.15,2013-06-16 20:13:00,
2013-06-16 15:19:00,82.7,66.9,29.87,WSW,241,4.0,12.0,59,0.00,,,0.00,Wunderground v.1.15,2013-06-16 20:19:00,
2013-06-16 15:24:00,82.8,66.0,29.87,SSW,213,6.0,10.0,57,0.00,,,0.00,Wunderground v.1.15,2013-06-16 20:24:00,
2013-06-16 15:30:00,83.0,67.7,29.87,SW,226,6.0,6.0,60,0.00,,,0.00,Wunderground v.1.15,2013-06-16 20:30:00,
2013-06-16 15:36:00,82.9,65.6,29.87,WSW,245,6.0,11.0,56,0.00,,,0.00,Wunderground v.1.15,2013-06-16 20:36:00,
2013-06-16 15:41:00,82.9,67.6,29.87,West,274,5.0,5.0,60,0.00,,,0.00,Wunderground v.1.15,2013-06-16 20:41:00,
2013-06-16 15:47:00,83.1,66.8,29.87,SW,217,3.0,7.0,58,0.00,,,0.00,Wunderground v.1.15,2013-06-16 20:47:00,
2013-06-16 15:53:00,83.2,67.9,29.87,WSW,247,4.0,10.0,60,0.00,,,0.00,Wunderground v.1.15,2013-06-16 20:53:00,
2013-06-16 15:58:00,83.1,66.8,29.87,SW,231,5.0,10.0,58,0.00,,,0.00,Wunderground v.1.15,2013-06-16 20:58:00,
2013-06-16 16:04:00,83.1,65.8,29.87,SW,215,5.0,11.0,56,0.00,,,0.00,Wunderground v.1.15,2013-06-16 21:04:00,
2013-06-16 16:10:00,83.0,67.2,29.87,SW,229,7.0,10.0,59,0.00,,,0.00,Wunderground v.1.15,2013-06-16 21:10:00,
2013-06-16 16:15:00,83.1,63.7,29.87,NW,314,8.0,10.0,52,0.00,,,0.00,Wunderground v.1.15,2013-06-16 21:15:00,
2013-06-16 16:20:00,83.4,63.9,29.87,WSW,254,7.0,7.0,52,0.00,,,0.00,Wunderground v.1.15,2013-06-16 21:20:00,
2013-06-16 16:26:00,83.2,61.5,29.87,WSW,237,4.0,8.0,48,0.00,,,0.00,Wunderground v.1.15,2013-06-16 21:26:00,
2013-06-16 16:31:00,83.0,63.0,29.87,SW,227,3.0,4.0,51,0.00,,,0.00,Wunderground v.1.15,2013-06-16 21:31:00,
2013-06-16 16:37:00,83.7,63.1,29.87,NW,313,2.0,5.0,50,0.00,,,0.00,Wunderground v.1.15,2013-06-16 21:37:00,
2013-06-16 16:43:00,84.0,63.4,29.87,SW,216,4.0,9.0,50,0.00,,,0.00,Wunderground v.1.15,2013-06-16 21:43:00,
2013-06-16 16:49:00,83.6,64.7,29.87,WSW,257,6.0,9.0,53,0.00,,,0.00,Wunderground v.1.15,2013-06-16 21:49:00,
2013-06-16 16:54:00,83.0,63.6,29.87,WSW,252,5.0,6.0,52,0.00,,,0.00,Wunderground v.1.15,2013-06-16 21:54:00,
2013-06-16 17:00:00,83.0,61.9,29.87,South,190,4.0,5.0,49,0.00,,,0.00,Wunderground v.1.15,2013-06-16 22:00:00,
2013-06-16 17:06:00,82.5,63.6,29.87,West,275,4.0,7.0,53,0.00,,,0.00,Wunderground v.1.15,2013-06-16 22:06:00,
2013-06-16 17:12:00,82.5,65.7,29.86,SW,232,4.0,5.0,57,0.00,,,0.00,Wunderground v.1.15,2013-06-16 22:12:00,
2013-06-16 17:18:00,82.4,65.1,29.86,West,270,3.0,5.0,56,0.00,,,0.00,Wunderground v.1.15,2013-06-16 22:18:00,
2013-06-16 17:23:00,82.5,63.6,29.86,West,259,3.0,3.0,53,0.00,,,0.00,Wunderground v.1.15,2013-06-16 22:23:00,
2013-06-16 17:29:00,83.2,64.3,29.86,WSW,252,2.0,3.0,53,0.00,,,0.00,Wunderground v.1.15,2013-06-16 22:29:00,
2013-06-16 17:35:00,83.8,63.7,29.86,West,259,1.0,4.0,51,0.00,,,0.00,Wunderground v.1.15,2013-06-16 22:35:00,
2013-06-16 17:40:00,84.0,63.9,29.85,WSW,247,3.0,3.0,51,0.00,,,0.00,Wunderground v.1.15,2013-06-16 22:40:00,
2013-06-16 17:46:00,83.7,62.5,29.85,West,262,4.0,7.0,49,0.00,,,0.00,Wunderground v.1.15,2013-06-16 22:46:00,
2013-06-16 17:51:00,83.1,63.7,29.85,NW,315,4.0,4.0,52,0.00,,,0.00,Wunderground v.1.15,2013-06-16 22:51:00,
2013-06-16 17:57:00,82.7,62.7,29.85,West,273,3.0,4.0,51,0.00,,,0.00,Wunderground v.1.15,2013-06-16 22:57:00,
2013-06-16 18:02:00,82.7,62.7,29.85,WSW,255,3.0,6.0,51,0.00,,,0.00,Wunderground v.1.15,2013-06-16 23:02:00,
2013-06-16 18:07:00,82.4,63.0,29.85,WSW,255,3.0,6.0,52,0.00,,,0.00,Wunderground v.1.15,2013-06-16 23:07:00,
2013-06-16 18:13:00,82.2,62.3,29.85,WNW,287,3.0,7.0,51,0.00,,,0.00,Wunderground v.1.15,2013-06-16 23:13:00,
2013-06-16 18:19:00,81.8,62.5,29.85,WNW,283,4.0,7.0,52,0.00,,,0.00,Wunderground v.1.15,2013-06-16 23:19:00,
2013-06-16 18:24:00,81.5,63.8,29.85,WNW,289,4.0,6.0,55,0.00,,,0.00,Wunderground v.1.15,2013-06-16 23:24:00,
2013-06-16 18:30:00,81.7,63.4,29.85,WSW,253,3.0,6.0,54,0.00,,,0.00,Wunderground v.1.15,2013-06-16 23:30:00,
2013-06-16 18:36:00,82.3,63.5,29.85,West,279,3.0,6.0,53,0.00,,,0.00,Wunderground v.1.15,2013-06-16 23:36:00,
2013-06-16 18:42:00,82.4,63.5,29.85,West,280,2.0,3.0,53,0.00,,,0.00,Wunderground v.1.15,2013-06-16 23:42:00,
2013-06-16 18:48:00,82.6,65.3,29.84,West,280,1.0,3.0,56,0.00,,,0.00,Wunderground v.1.15,2013-06-16 23:48:00,
2013-06-16 18:53:00,83.0,64.1,29.85,West,280,1.0,2.0,53,0.00,,,0.00,Wunderground v.1.15,2013-06-16 23:53:00,
2013-06-16 18:58:00,83.4,65.0,29.85,West,280,1.0,2.0,54,0.00,,,0.00,Wunderground v.1.15,2013-06-16 23:58:00,
2013-06-16 19:04:00,83.7,63.7,29.84,West,280,1.0,2.0,51,0.00,,,0.00,Wunderground v.1.15,2013-06-17 00:04:00,
2013-06-16 19:10:00,83.5,61.7,29.85,West,275,1.0,2.0,48,0.00,,,0.00,Wunderground v.1.15,2013-06-17 00:10:00,
2013-06-16 19:15:00,83.1,59.6,29.85,West,277,2.0,4.0,45,0.00,,,0.00,Wunderground v.1.15,2013-06-17 00:15:00,
2013-06-16 19:21:00,82.5,60.2,29.84,WNW,300,4.0,5.0,47,0.00,,,0.00,Wunderground v.1.15,2013-06-17 00:21:00,
2013-06-16 19:27:00,82.2,59.4,29.84,WNW,297,3.0,5.0,46,0.00,,,0.00,Wunderground v.1.15,2013-06-17 00:27:00,
2013-06-16 19:32:00,82.1,59.3,29.84,WNW,297,2.0,2.0,46,0.00,,,0.00,Wunderground v.1.15,2013-06-17 00:32:00,
2013-06-16 19:38:00,82.0,59.8,29.84,WNW,297,2.0,3.0,47,0.00,,,0.00,Wunderground v.1.15,2013-06-17 00:38:00,
2013-06-16 19:44:00,81.7,60.1,29.84,WNW,297,2.0,3.0,48,0.00,,,0.00,Wunderground v.1.15,2013-06-17 00:44:00,
2013-06-16 19:50:00,81.4,61.5,29.85,WNW,297,1.0,1.0,51,0.00,,,0.00,Wunderground v.1.15,2013-06-17 00:50:00,
2013-06-16 19:55:00,81.0,61.7,29.85,WNW,297,0.0,1.0,52,0.00,,,0.00,Wunderground v.1.15,2013-06-17 00:55:00,
2013-06-16 20:01:00,80.6,60.8,29.85,WNW,297,0.0,0.0,51,0.00,,,0.00,Wunderground v.1.15,2013-06-17 01:01:00,
2013-06-16 20:07:00,80.3,61.1,29.85,WNW,297,0.0,2.0,52,0.00,,,0.00,Wunderground v.1.15,2013-06-17 01:07:00,
2013-06-16 20:12:00,80.1,62.0,29.84,WNW,297,0.0,0.0,54,0.00,,,0.00,Wunderground v.1.15,2013-06-17 01:12:00,
2013-06-16 20:17:00,79.3,61.2,29.84,WNW,297,0.0,0.0,54,0.00,,,0.00,Wunderground v.1.15,2013-06-17 01:17:00,
2013-06-16 20:22:00,78.8,60.2,29.84,WNW,297,0.0,0.0,53,0.00,,,0.00,Wunderground v.1.15,2013-06-17 01:22:00,
2013-06-16 20:27:00,78.5,62.0,29.84,WNW,297,0.0,0.0,57,0.00,,,0.00,Wunderground v.1.15,2013-06-17 01:27:00,
2013-06-16 20:33:00,77.7,62.2,29.84,WNW,297,0.0,0.0,59,0.00,,,0.00,Wunderground v.1.15,2013-06-17 01:33:00,
2013-06-16 20:39:00,76.9,61.5,29.84,WNW,297,0.0,0.0,59,0.00,,,0.00,Wunderground v.1.15,2013-06-17 01:39:00,
2013-06-16 20:45:00,76.4,62.0,29.84,WNW,297,0.0,0.0,61,0.00,,,0.00,Wunderground v.1.15,2013-06-17 01:45:00,
2013-06-16 20:51:00,76.0,61.1,29.85,WNW,297,0.0,0.0,60,0.00,,,0.00,Wunderground v.1.15,2013-06-17 01:51:00,
2013-06-16 20:57:00,75.6,60.7,29.85,WNW,297,0.0,0.0,60,0.00,,,0.00,Wunderground v.1.15,2013-06-17 01:57:00,
2013-06-16 21:02:00,75.3,60.5,29.85,WNW,297,0.0,0.0,60,0.00,,,0.00,Wunderground v.1.15,2013-06-17 02:02:00,
2013-06-16 21:11:00,75.3,60.0,29.85,WNW,297,0.0,0.0,59,0.00,,,0.00,Wunderground v.1.15,2013-06-17 02:11:00,
2013-06-16 21:16:00,75.1,61.2,29.86,WNW,297,0.0,2.0,62,0.00,,,0.00,Wunderground v.1.15,2013-06-17 02:16:00,
2013-06-16 21:22:00,74.1,59.8,29.86,SW,219,2.0,2.0,61,0.00,,,0.00,Wunderground v.1.15,2013-06-17 02:22:00,
2013-06-16 21:28:00,74.2,59.9,29.86,SW,219,1.0,2.0,61,0.00,,,0.00,Wunderground v.1.15,2013-06-17 02:28:00,
2013-06-16 21:34:00,74.5,59.7,29.86,SW,219,1.0,3.0,60,0.00,,,0.00,Wunderground v.1.15,2013-06-17 02:34:00,
2013-06-16 21:39:00,74.9,58.1,29.86,SW,219,1.0,3.0,56,0.00,,,0.00,Wunderground v.1.15,2013-06-17 02:39:00,
2013-06-16 21:45:00,75.6,58.8,29.87,SW,219,2.0,3.0,56,0.00,,,0.00,Wunderground v.1.15,2013-06-17 02:45:00,
2013-06-16 21:50:00,75.4,60.5,29.87,SW,219,2.0,2.0,60,0.00,,,0.00,Wunderground v.1.15,2013-06-17 02:50:00,
2013-06-16 21:56:00,74.2,59.9,29.87,NW,304,2.0,4.0,61,0.00,,,0.00,Wunderground v.1.15,2013-06-17 02:56:00,
2013-06-16 22:02:00,74.3,59.5,29.88,WNW,303,3.0,4.0,60,0.00,,,0.00,Wunderground v.1.15,2013-06-17 03:02:00,
2013-06-16 22:07:00,74.7,59.4,29.88,WNW,303,2.0,4.0,59,0.00,,,0.00,Wunderground v.1.15,2013-06-17 03:07:00,
2013-06-16 22:13:00,75.1,59.3,29.88,WNW,303,2.0,2.0,58,0.00,,,0.00,Wunderground v.1.15,2013-06-17 03:13:00,
2013-06-16 22:18:00,75.0,59.2,29.88,WNW,303,2.0,3.0,58,0.00,,,0.00,Wunderground v.1.15,2013-06-17 03:18:00,
2013-06-16 22:24:00,74.6,59.3,29.89,WNW,297,3.0,4.0,59,0.00,,,0.00,Wunderground v.1.15,2013-06-17 03:24:00,
2013-06-16 22:30:00,74.3,59.5,29.89,WNW,297,3.0,3.0,60,0.00,,,0.00,Wunderground v.1.15,2013-06-17 03:30:00,
2013-06-16 22:35:00,74.0,59.7,29.90,WNW,297,2.0,3.0,61,0.00,,,0.00,Wunderground v.1.15,2013-06-17 03:35:00,
2013-06-16 22:41:00,73.6,59.3,29.89,WNW,297,1.0,2.0,61,0.00,,,0.00,Wunderground v.1.15,2013-06-17 03:41:00,
2013-06-16 22:46:00,73.3,59.0,29.89,WNW,297,1.0,2.0,61,0.00,,,0.00,Wunderground v.1.15,2013-06-17 03:46:00,
2013-06-16 22:52:00,73.2,58.9,29.89,WNW,297,1.0,2.0,61,0.00,,,0.00,Wunderground v.1.15,2013-06-17 03:52:00,
2013-06-16 22:58:00,72.9,59.6,29.89,WNW,297,1.0,3.0,63,0.00,,,0.00,Wunderground v.1.15,2013-06-17 03:58:00,
2013-06-16 23:02:00,72.5,60.5,29.89,WNW,297,1.0,1.0,66,0.00,,,0.00,Wunderground v.1.15,2013-06-17 04:02:00,
2013-06-16 23:06:00,72.2,62.3,29.89,WNW,297,0.0,1.0,71,0.00,,,0.00,Wunderground v.1.15,2013-06-17 04:06:00,
2013-06-16 23:12:00,71.5,63.2,29.89,WNW,297,0.0,0.0,75,0.00,,,0.00,Wunderground v.1.15,2013-06-17 04:12:00,
2013-06-16 23:18:00,70.7,60.4,29.89,WNW,297,0.0,1.0,70,0.00,,,0.00,Wunderground v.1.15,2013-06-17 04:18:00,
2013-06-16 23:20:00,70.6,59.5,29.89,WNW,297,1.0,2.0,68,0.00,,,0.00,Wunderground v.1.15,2013-06-17 04:20:00,
2013-06-16 23:26:00,70.9,58.5,29.89,WNW,297,2.0,2.0,65,0.00,,,0.00,Wunderground v.1.15,2013-06-17 04:26:00,
2013-06-16 23:31:00,71.6,57.9,29.90,WNW,297,2.0,4.0,62,0.00,,,0.00,Wunderground v.1.15,2013-06-17 04:31:00,
2013-06-16 23:37:00,72.4,57.7,29.90,NW,311,3.0,5.0,60,0.00,,,0.00,Wunderground v.1.15,2013-06-17 04:37:00,
2013-06-16 23:43:00,72.8,57.2,29.90,NW,311,4.0,5.0,58,0.00,,,0.00,Wunderground v.1.15,2013-06-17 04:43:00,
2013-06-16 23:49:00,73.0,56.9,29.90,NW,311,3.0,5.0,57,0.00,,,0.00,Wunderground v.1.15,2013-06-17 04:49:00,
2013-06-16 23:55:00,73.0,56.4,29.90,NW,306,2.0,3.0,56,0.00,,,0.00,Wunderground v.1.15,2013-06-17 04:55:00,